Weather History for KJHW - November, 2013

Change the Weather History Date:

Saturday, November 9, 2013

  Actual Average Record
Temperature  
Mean Temperature 39 °F -  
Max Temperature 48 °F 50 °F 68 °F (1999)
Min Temperature 30 °F 29 °F 10 °F (1991)
Degree Days  
Heating Degree Days 26    
Moisture  
Dew Point 27 °F    
Average Humidity 62    
Maximum Humidity 81    
Minimum Humidity 43    
Precipitation  
Precipitation 0.04 in - - ()
Sea Level Pressure  
Sea Level Pressure 30.01 in    
Wind  
Wind Speed 10 mph (SSW)    
Max Wind Speed 28 mph    
Max Gust Speed 37 mph    
Visibility 10 miles    
Events      
Averages and records for this station are not official NWS values.
T = Trace of Precipitation, MM = Missing Value Source: NWS Daily Summary

Daily Weather History Graph

Daily Weather History Graph

Search for Another Location

Airport or City:

Trip Planner

Search our weather history database for the weather conditions in past years. The results will help you decide how hot, cold, wet, or windy it might be!

Date:

Astronomy

Nov. 09, 2013 Rise Set
Actual Time 7:00 AM EST 5:01 PM EST
Civil Twilight 6:30 AM EST 5:30 PM EST
Nautical Twilight 5:56 AM EST 6:04 PM EST
Astronomical Twilight 5:24 AM EST 6:37 PM EST
Moon 12:34 PM EST (11/9) 11:30 PM EST (11/9)
Length of Visible Light 11h 00m
Length of Day
10h 00m
Waxing Crescent, 44% of the Moon is Illuminated
Nov 9
Waxing Crescent
Nov 10
First Quarter
Nov 17
Full
Nov 25
Last Quarter
Dec 2
New

Hourly Weather History & Observations

Time (EST) Temp. Windchill Dew Point Humidity Pressure Visibility Wind Dir Wind Speed Gust Speed Precip Events Conditions
12:15 AM 33.8 °F 27.7 °F 24.8 °F 70% 30.20 in 10.0 mi SW 6.9 mph - N/A   Overcast
12:35 AM 33.8 °F 27.0 °F 23.0 °F 65% 30.21 in 10.0 mi SW 8.1 mph - N/A   Overcast
12:55 AM 33.8 °F 25.8 °F 23.0 °F 65% 30.20 in 10.0 mi SW 10.4 mph - N/A   Overcast
1:15 AM 33.8 °F 26.4 °F 23.0 °F 65% 30.20 in 10.0 mi SW 9.2 mph - N/A   Overcast
1:35 AM 33.8 °F 25.8 °F 23.0 °F 65% 30.20 in 10.0 mi WSW 10.4 mph - N/A   Overcast
1:55 AM 33.8 °F 26.4 °F 23.0 °F 65% 30.20 in 10.0 mi SW 9.2 mph - N/A   Overcast
2:15 AM 33.8 °F 27.0 °F 23.0 °F 65% 30.19 in 10.0 mi SW 8.1 mph - N/A   Overcast
2:35 AM 33.8 °F 28.6 °F 23.0 °F 65% 30.19 in 10.0 mi SW 5.8 mph - N/A   Overcast
2:55 AM 32.0 °F 25.6 °F 21.2 °F 64% 30.19 in 10.0 mi SSW 6.9 mph - N/A   Overcast
3:15 AM 30.2 °F 23.4 °F 23.0 °F 75% 30.19 in 10.0 mi SSW 6.9 mph - N/A   Mostly Cloudy
3:35 AM 30.2 °F 23.4 °F 23.0 °F 75% 30.19 in 10.0 mi SSW 6.9 mph - N/A   Scattered Clouds
3:55 AM 30.2 °F 23.4 °F 23.0 °F 75% 30.18 in 10.0 mi South 6.9 mph - N/A   Scattered Clouds
4:15 AM 30.2 °F 24.3 °F 23.0 °F 75% 30.19 in 10.0 mi South 5.8 mph - N/A   Overcast
4:35 AM 30.2 °F 23.4 °F 23.0 °F 75% 30.18 in 10.0 mi South 6.9 mph - N/A   Overcast
4:55 AM 30.2 °F 23.4 °F 23.0 °F 75% 30.18 in 10.0 mi South 6.9 mph - N/A   Overcast
5:15 AM 30.2 °F 23.4 °F 23.0 °F 75% 30.18 in 10.0 mi SSW 6.9 mph - N/A   Overcast
5:35 AM 30.2 °F 21.9 °F 24.8 °F 80% 30.16 in 10.0 mi South 9.2 mph - N/A   Overcast
5:55 AM 30.2 °F 21.9 °F 23.0 °F 75% 30.17 in 10.0 mi South 9.2 mph - N/A   Overcast
6:15 AM 32.0 °F 23.6 °F 21.2 °F 64% 30.17 in 10.0 mi SSW 10.4 mph - N/A   Overcast
6:35 AM 32.0 °F 24.2 °F 23.0 °F 69% 30.17 in 10.0 mi SSW 9.2 mph - N/A   Overcast
6:55 AM 32.0 °F 24.2 °F 23.0 °F 69% 30.15 in 10.0 mi South 9.2 mph - N/A   Overcast
7:15 AM 32.0 °F 24.2 °F 24.8 °F 75% 30.15 in 10.0 mi South 9.2 mph - N/A   Scattered Clouds
7:35 AM 32.0 °F 24.2 °F 21.2 °F 64% 30.15 in 10.0 mi SSW 9.2 mph - N/A   Partly Cloudy
7:55 AM 32.0 °F 24.2 °F 23.0 °F 69% 30.16 in 10.0 mi South 9.2 mph - N/A   Partly Cloudy
8:15 AM 32.0 °F 23.6 °F 21.2 °F 64% 30.16 in 10.0 mi South 10.4 mph - N/A   Scattered Clouds
8:35 AM 33.8 °F 25.3 °F 23.0 °F 65% 30.15 in 10.0 mi South 11.5 mph - N/A   Scattered Clouds
8:55 AM 33.8 °F 25.8 °F 23.0 °F 65% 30.13 in 10.0 mi South 10.4 mph - N/A   Overcast
9:15 AM 33.8 °F 25.8 °F 23.0 °F 65% 30.13 in 10.0 mi South 10.4 mph - N/A   Overcast
9:35 AM 33.8 °F 24.3 °F 24.8 °F 70% 30.11 in 10.0 mi South 13.8 mph - N/A   Overcast
9:55 AM 33.8 °F 27.0 °F 24.8 °F 70% 30.10 in 10.0 mi South 8.1 mph - N/A   Mostly Cloudy
10:15 AM 35.6 °F 26.6 °F 24.8 °F 65% 30.09 in 10.0 mi South 13.8 mph 20.7 mph N/A   Mostly Cloudy
10:35 AM 35.6 °F 26.2 °F 26.6 °F 70% 30.07 in 10.0 mi South 15.0 mph 25.3 mph N/A   Partly Cloudy
10:55 AM 37.4 °F 27.8 °F 26.6 °F 65% 30.05 in 10.0 mi South 17.3 mph 24.2 mph N/A   Clear
11:15 AM 39.2 °F 30.8 °F 26.6 °F 61% 30.04 in 10.0 mi South 15.0 mph 21.9 mph N/A   Clear
11:35 AM 39.2 °F 29.6 °F 26.6 °F 61% 30.01 in 10.0 mi South 19.6 mph 27.6 mph N/A   Clear
11:55 AM 41.0 °F 31.9 °F 26.6 °F 57% 29.99 in 10.0 mi South 19.6 mph 26.5 mph N/A   Clear
12:15 PM 42.8 °F 35.4 °F 26.6 °F 53% 29.97 in 10.0 mi South 15.0 mph 24.2 mph N/A   Partly Cloudy
12:35 PM 42.8 °F 34.8 °F 24.8 °F 49% 29.95 in 10.0 mi South 17.3 mph 26.5 mph N/A   Clear
12:55 PM 41.0 °F 33.5 °F 26.6 °F 57% 29.93 in 10.0 mi South 13.8 mph 29.9 mph N/A   Partly Cloudy
1:15 PM 44.6 °F 37.8 °F 26.6 °F 49% 29.92 in 10.0 mi South 15.0 mph 20.7 mph N/A   Mostly Cloudy
1:35 PM 44.6 °F 38.8 °F 26.6 °F 49% 29.90 in 10.0 mi South 11.5 mph 20.7 mph N/A   Mostly Cloudy
1:55 PM 44.6 °F 37.2 °F 24.8 °F 46% 29.89 in 10.0 mi South 17.3 mph 26.5 mph N/A   Overcast
2:15 PM 44.6 °F 37.8 °F 24.8 °F 46% 29.89 in 10.0 mi SSW 15.0 mph 21.9 mph N/A   Mostly Cloudy
2:35 PM 46.4 °F 39.5 °F 24.8 °F 43% 29.88 in 10.0 mi SSW 17.3 mph 24.2 mph N/A   Partly Cloudy
2:55 PM 46.4 °F 40.4 °F 24.8 °F 43% 29.88 in 10.0 mi SSW 13.8 mph 21.9 mph N/A   Clear
3:15 PM 46.4 °F 41.1 °F 24.8 °F 43% 29.88 in 10.0 mi SSW 11.5 mph 19.6 mph N/A   Clear
3:35 PM 46.4 °F 40.4 °F 24.8 °F 43% 29.88 in 10.0 mi South 13.8 mph 20.7 mph N/A   Partly Cloudy
3:55 PM 46.4 °F 41.1 °F 24.8 °F 43% 29.87 in 10.0 mi South 11.5 mph 17.3 mph N/A   Mostly Cloudy
4:15 PM 46.4 °F 41.1 °F 24.8 °F 43% 29.87 in 10.0 mi SSW 11.5 mph - N/A   Overcast
4:35 PM 46.4 °F 40.7 °F 24.8 °F 43% 29.87 in 10.0 mi SSW 12.7 mph 19.6 mph N/A   Overcast
4:55 PM 46.4 °F 41.5 °F 24.8 °F 43% 29.86 in 10.0 mi South 10.4 mph - N/A   Overcast
5:15 PM 46.4 °F 41.5 °F 24.8 °F 43% 29.87 in 10.0 mi SSW 10.4 mph - N/A   Overcast
5:35 PM 46.4 °F 40.7 °F 24.8 °F 43% 29.87 in 10.0 mi South 12.7 mph - N/A   Overcast
5:55 PM 46.4 °F 41.5 °F 24.8 °F 43% 29.87 in 10.0 mi SSW 10.4 mph - N/A   Overcast
6:15 PM 46.4 °F 41.9 °F 24.8 °F 43% 29.88 in 10.0 mi SSW 9.2 mph - N/A   Overcast
6:35 PM 46.4 °F 41.1 °F 28.4 °F 50% 29.88 in 10.0 mi SW 11.5 mph 21.9 mph N/A   Overcast
6:55 PM 46.4 °F 41.1 °F 30.2 °F 53% 29.89 in 10.0 mi SW 11.5 mph 16.1 mph N/A   Overcast
7:15 PM 44.6 °F 40.2 °F 33.8 °F 66% 29.88 in 10.0 mi SW 8.1 mph - N/A   Overcast
7:35 PM 46.4 °F 42.9 °F 33.8 °F 62% 29.88 in 10.0 mi SSW 6.9 mph - N/A   Overcast
7:55 PM 46.4 °F 41.5 °F 33.8 °F 62% 29.87 in 10.0 mi SSW 10.4 mph - N/A   Overcast
8:15 PM 46.4 °F 42.4 °F 33.8 °F 62% 29.86 in 10.0 mi SSW 8.1 mph - N/A   Overcast
8:35 PM 48.2 °F - 33.8 °F 58% 29.86 in 10.0 mi SW 11.5 mph 17.3 mph N/A   Overcast
8:55 PM 48.2 °F - 33.8 °F 58% 29.85 in 10.0 mi SW 11.5 mph 17.3 mph N/A   Overcast
9:15 PM 48.2 °F - 33.8 °F 58% 29.85 in 10.0 mi SW 11.5 mph 18.4 mph N/A   Overcast
9:35 PM 48.2 °F - 35.6 °F 62% 29.85 in 10.0 mi WSW 23.0 mph 29.9 mph N/A   Overcast
9:55 PM 46.4 °F 38.7 °F 39.2 °F 76% 29.88 in 8.0 mi WNW 20.7 mph 25.3 mph N/A   Overcast
10:15 PM 44.6 °F 35.1 °F 39.2 °F 81% 29.87 in 7.0 mi WSW 27.6 mph 36.8 mph 0.02 in   Overcast
10:35 PM 44.6 °F 37.2 °F 39.2 °F 81% 29.86 in 10.0 mi WSW 17.3 mph 23.0 mph 0.03 in   Overcast
10:55 PM 44.6 °F 35.7 °F 39.2 °F 81% 29.85 in 7.0 mi WSW 24.2 mph 31.1 mph 0.04 in   Overcast
11:15 PM 44.6 °F 37.4 °F 39.2 °F 81% 29.85 in 10.0 mi WSW 16.1 mph - N/A   Overcast
11:35 PM 44.6 °F 37.8 °F 39.2 °F 81% 29.84 in 10.0 mi SW 15.0 mph 19.6 mph N/A   Overcast
11:55 PM 44.6 °F 38.4 °F 39.2 °F 81% 29.85 in 10.0 mi SW 12.7 mph 19.6 mph N/A   Overcast